contact:dominique.lefevre@mio.osupytheas.fr, maurice.libes@osupytheas.fr, didier.mallarino@osupytheas.fr
Project:EMSO http://www.emso-fr.org/EMSO-France
Depth: 2436.0 m
Title:EMSO Ligure Ouest : Data MII capteur MICROCAT
DateTime_Computer,Latitude,Longitude,Temperature,Conductivity,Pressure,DateTime_Instrument
DateTime_Computer,Latitude,Longitude,degC,S m-1,dbar,DateTime_Instrument
2022-01-10T00:01:04Z,42.805,6.029,13.2998,4.60074,2469.727,2022-1-10T02:02:34Z
2022-01-10T00:04:07Z,42.805,6.029,13.3005,4.60163,2469.704,2022-1-10T02:05:37Z
2022-01-10T00:07:10Z,42.805,6.029,13.3001,4.60115,2469.68,2022-1-10T02:08:40Z
2022-01-10T00:10:13Z,42.805,6.029,13.3005,4.60117,2469.713,2022-1-10T02:11:43Z
2022-01-10T00:13:16Z,42.805,6.029,13.3009,4.60097,2469.667,2022-1-10T02:14:47Z
2022-01-10T00:16:19Z,42.805,6.029,13.3015,4.60132,2469.667,2022-1-10T02:17:50Z
2022-01-10T00:19:22Z,42.805,6.029,13.3018,4.60110,2469.713,2022-1-10T02:20:53Z
2022-01-10T00:22:25Z,42.805,6.029,13.3010,4.60083,2469.69,2022-1-10T02:23:56Z
2022-01-10T00:25:28Z,42.805,6.029,13.2999,4.60125,2469.704,2022-1-10T02:26:59Z
2022-01-10T00:28:32Z,42.805,6.029,13.3012,4.60069,2469.69,2022-1-10T02:30:02Z
2022-01-10T00:31:35Z,42.805,6.029,13.2998,4.60151,2469.704,2022-1-10T02:33:05Z
2022-01-10T00:34:38Z,42.805,6.029,13.2999,4.60078,2469.704,2022-1-10T02:36:08Z
2022-01-10T00:37:41Z,42.805,6.029,13.2998,4.60065,2469.704,2022-1-10T02:39:12Z
2022-01-10T00:40:44Z,42.805,6.029,13.2998,4.60069,2469.713,2022-1-10T02:42:15Z
2022-01-10T00:43:47Z,42.805,6.029,13.3000,4.60049,2469.713,2022-1-10T02:45:18Z
2022-01-10T00:46:50Z,42.805,6.029,13.2995,4.60034,2469.704,2022-1-10T02:48:21Z
2022-01-10T00:49:53Z,42.805,6.029,13.2998,4.60035,2469.727,2022-1-10T02:51:24Z
2022-01-10T00:52:57Z,42.805,6.029,13.2994,4.60032,2469.704,2022-1-10T02:54:27Z
2022-01-10T00:56:00Z,42.805,6.029,13.3000,4.60032,2469.737,2022-1-10T02:57:30Z
2022-01-10T00:59:03Z,42.805,6.029,13.2994,4.60027,2469.667,2022-1-10T03:00:33Z
2022-01-10T01:02:06Z,42.805,6.029,13.2998,4.60034,2469.727,2022-1-10T03:03:37Z
2022-01-10T01:05:09Z,42.805,6.029,13.2995,4.60029,2469.699,2022-1-10T03:06:40Z
2022-01-10T01:08:12Z,42.805,6.029,13.2994,4.60031,2469.704,2022-1-10T03:09:43Z
2022-01-10T01:11:15Z,42.805,6.029,13.2997,4.60028,2469.727,2022-1-10T03:12:46Z
2022-01-10T01:14:18Z,42.805,6.029,13.2998,4.60024,2469.713,2022-1-10T03:15:49Z
2022-01-10T01:17:22Z,42.805,6.029,13.2997,4.60024,2469.713,2022-1-10T03:18:52Z
2022-01-10T01:20:25Z,42.805,6.029,13.2995,4.60024,2469.713,2022-1-10T03:21:55Z
2022-01-10T01:23:28Z,42.805,6.029,13.2996,4.60020,2469.727,2022-1-10T03:24:58Z
2022-01-10T01:26:31Z,42.805,6.029,13.3000,4.60018,2469.713,2022-1-10T03:28:02Z
2022-01-10T01:29:34Z,42.805,6.029,13.2996,4.60020,2469.69,2022-1-10T03:31:05Z
2022-01-10T01:32:37Z,42.805,6.029,13.2996,4.60021,2469.727,2022-1-10T03:34:08Z
2022-01-10T01:35:40Z,42.805,6.029,13.2993,4.60021,2469.727,2022-1-10T03:37:11Z
2022-01-10T01:38:43Z,42.805,6.029,13.2996,4.60023,2469.69,2022-1-10T03:40:14Z
2022-01-10T01:41:47Z,42.805,6.029,13.2995,4.60024,2469.68,2022-1-10T03:43:17Z
2022-01-10T01:44:50Z,42.805,6.029,13.2998,4.60028,2469.713,2022-1-10T03:46:20Z
2022-01-10T01:47:53Z,42.805,6.029,13.3005,4.60026,2469.737,2022-1-10T03:49:23Z
2022-01-10T01:50:56Z,42.805,6.029,13.3006,4.60034,2469.713,2022-1-10T03:52:27Z
2022-01-10T01:53:59Z,42.805,6.029,13.3007,4.60030,2469.713,2022-1-10T03:55:30Z
2022-01-10T01:57:02Z,42.805,6.029,13.3009,4.60039,2469.713,2022-1-10T03:58:33Z
2022-01-10T02:00:05Z,42.805,6.029,13.3005,4.60030,2469.737,2022-1-10T04:01:36Z
2022-01-10T02:03:08Z,42.805,6.029,13.3010,4.60026,2469.727,2022-1-10T04:04:39Z
2022-01-10T02:06:12Z,42.805,6.029,13.3004,4.60036,2469.727,2022-1-10T04:07:42Z
2022-01-10T02:09:15Z,42.805,6.029,13.3004,4.60028,2469.69,2022-1-10T04:10:45Z
2022-01-10T02:12:18Z,42.805,6.029,13.3006,4.60034,2469.737,2022-1-10T04:13:48Z
2022-01-10T02:15:21Z,42.805,6.029,13.2994,4.60029,2469.713,2022-1-10T04:16:52Z
2022-01-10T02:18:24Z,42.805,6.029,13.2996,4.60029,2469.727,2022-1-10T04:19:55Z
2022-01-10T02:21:27Z,42.805,6.029,13.2996,4.60033,2469.727,2022-1-10T04:22:58Z
2022-01-10T02:24:30Z,42.805,6.029,13.2997,4.60024,2469.727,2022-1-10T04:26:01Z
2022-01-10T02:27:33Z,42.805,6.029,13.2996,4.60041,2469.69,2022-1-10T04:29:04Z
2022-01-10T02:30:37Z,42.805,6.029,13.2996,4.60027,2469.713,2022-1-10T04:32:07Z
2022-01-10T02:33:40Z,42.805,6.029,13.3000,4.60024,2469.713,2022-1-10T04:35:10Z
2022-01-10T02:36:43Z,42.805,6.029,13.2995,4.60025,2469.69,2022-1-10T04:38:13Z
2022-01-10T02:39:46Z,42.805,6.029,13.2996,4.60026,2469.713,2022-1-10T04:41:17Z
2022-01-10T02:42:49Z,42.805,6.029,13.2993,4.60023,2469.69,2022-1-10T04:44:20Z
2022-01-10T02:45:52Z,42.805,6.029,13.2998,4.60021,2469.713,2022-1-10T04:47:23Z
2022-01-10T02:48:55Z,42.805,6.029,13.2998,4.60021,2469.727,2022-1-10T04:50:26Z
2022-01-10T02:51:58Z,42.805,6.029,13.2993,4.60021,2469.713,2022-1-10T04:53:29Z
2022-01-10T02:55:02Z,42.805,6.029,13.2997,4.60024,2469.75,2022-1-10T04:56:32Z
2022-01-10T02:58:05Z,42.805,6.029,13.2994,4.60031,2469.713,2022-1-10T04:59:35Z
2022-01-10T03:01:08Z,42.805,6.029,13.2998,4.60043,2469.737,2022-1-10T05:02:38Z
2022-01-10T03:04:11Z,42.805,6.029,13.2996,4.60033,2469.727,2022-1-10T05:05:42Z
2022-01-10T03:07:14Z,42.805,6.029,13.2993,4.60026,2469.713,2022-1-10T05:08:45Z
2022-01-10T03:10:17Z,42.805,6.029,13.2996,4.60041,2469.727,2022-1-10T05:11:48Z
2022-01-10T03:13:20Z,42.805,6.029,13.3001,4.60041,2469.713,2022-1-10T05:14:51Z
2022-01-10T03:16:23Z,42.805,6.029,13.2996,4.60052,2469.713,2022-1-10T05:17:54Z
2022-01-10T03:19:27Z,42.805,6.029,13.2998,4.60031,2469.704,2022-1-10T05:20:57Z
2022-01-10T03:22:30Z,42.805,6.029,13.2996,4.60053,2469.75,2022-1-10T05:24:00Z
2022-01-10T03:25:33Z,42.805,6.029,13.2998,4.60050,2469.727,2022-1-10T05:27:03Z
2022-01-10T03:28:36Z,42.805,6.029,13.2997,4.60044,2469.727,2022-1-10T05:30:07Z
2022-01-10T03:31:39Z,42.805,6.029,13.2996,4.60059,2469.69,2022-1-10T05:33:10Z
2022-01-10T03:34:42Z,42.805,6.029,13.2997,4.60045,2469.704,2022-1-10T05:36:13Z
2022-01-10T03:37:45Z,42.805,6.029,13.3000,4.60041,2469.727,2022-1-10T05:39:16Z
2022-01-10T03:40:48Z,42.805,6.029,13.2995,4.60031,2469.727,2022-1-10T05:42:19Z
2022-01-10T03:43:52Z,42.805,6.029,13.2995,4.60039,2469.737,2022-1-10T05:45:22Z
2022-01-10T03:46:55Z,42.805,6.029,13.2999,4.60035,2469.737,2022-1-10T05:48:25Z
2022-01-10T03:49:58Z,42.805,6.029,13.2993,4.60038,2469.746,2022-1-10T05:51:28Z
2022-01-10T03:53:01Z,42.805,6.029,13.3000,4.60033,2469.737,2022-1-10T05:54:32Z
2022-01-10T03:56:04Z,42.805,6.029,13.2997,4.60034,2469.737,2022-1-10T05:57:35Z
2022-01-10T03:59:07Z,42.805,6.029,13.2994,4.60023,2469.75,2022-1-10T06:00:38Z
2022-01-10T04:02:10Z,42.805,6.029,13.2997,4.60023,2469.737,2022-1-10T06:03:41Z
2022-01-10T04:05:13Z,42.805,6.029,13.2998,4.60021,2469.713,2022-1-10T06:06:44Z
2022-01-10T04:08:17Z,42.805,6.029,13.3003,4.60021,2469.76,2022-1-10T06:09:47Z
2022-01-10T04:11:20Z,42.805,6.029,13.3000,4.60021,2469.737,2022-1-10T06:12:50Z
2022-01-10T04:14:23Z,42.805,6.029,13.3006,4.60025,2469.713,2022-1-10T06:15:53Z
2022-01-10T04:17:26Z,42.805,6.029,13.3003,4.60024,2469.773,2022-1-10T06:18:56Z
2022-01-10T04:20:29Z,42.805,6.029,13.3000,4.60023,2469.713,2022-1-10T06:22:00Z
2022-01-10T04:23:32Z,42.805,6.029,13.3000,4.60026,2469.76,2022-1-10T06:25:03Z
2022-01-10T04:26:35Z,42.805,6.029,13.2996,4.60024,2469.737,2022-1-10T06:28:06Z
2022-01-10T04:29:38Z,42.805,6.029,13.2996,4.60028,2469.773,2022-1-10T06:31:09Z
2022-01-10T04:32:41Z,42.805,6.029,13.2993,4.60034,2469.75,2022-1-10T06:34:12Z
2022-01-10T04:35:45Z,42.805,6.029,13.2994,4.60031,2469.76,2022-1-10T06:37:15Z
2022-01-10T04:38:48Z,42.805,6.029,13.2997,4.60065,2469.773,2022-1-10T06:40:18Z
2022-01-10T04:41:51Z,42.805,6.029,13.2996,4.60059,2469.727,2022-1-10T06:43:21Z
2022-01-10T04:44:54Z,42.805,6.029,13.2993,4.60049,2469.76,2022-1-10T06:46:25Z
2022-01-10T04:47:57Z,42.805,6.029,13.2996,4.60036,2469.76,2022-1-10T06:49:28Z
2022-01-10T04:51:00Z,42.805,6.029,13.2997,4.60050,2469.783,2022-1-10T06:52:31Z
2022-01-10T04:54:03Z,42.805,6.029,13.2994,4.60057,2469.737,2022-1-10T06:55:34Z
2022-01-10T04:57:06Z,42.805,6.029,13.2995,4.60057,2469.773,2022-1-10T06:58:37Z
2022-01-10T05:00:10Z,42.805,6.029,13.2997,4.60058,2469.773,2022-1-10T07:01:40Z
2022-01-10T05:03:13Z,42.805,6.029,13.2997,4.60073,2469.773,2022-1-10T07:04:43Z
2022-01-10T05:06:16Z,42.805,6.029,13.2994,4.60095,2469.76,2022-1-10T07:07:46Z
2022-01-10T05:09:19Z,42.805,6.029,13.2994,4.60106,2469.76,2022-1-10T07:10:50Z
2022-01-10T05:12:22Z,42.805,6.029,13.2993,4.60114,2469.773,2022-1-10T07:13:53Z
2022-01-10T05:15:25Z,42.805,6.029,13.2996,4.60152,2469.773,2022-1-10T07:16:56Z
2022-01-10T05:18:28Z,42.805,6.029,13.2996,4.60084,2469.746,2022-1-10T07:19:59Z
2022-01-10T05:21:31Z,42.805,6.029,13.3005,4.60084,2469.76,2022-1-10T07:23:02Z
2022-01-10T05:24:35Z,42.805,6.029,13.2996,4.60084,2469.76,2022-1-10T07:26:05Z
2022-01-10T05:27:38Z,42.805,6.029,13.2998,4.60060,2469.797,2022-1-10T07:29:08Z
2022-01-10T05:30:41Z,42.805,6.029,13.2995,4.60047,2469.773,2022-1-10T07:32:11Z
2022-01-10T05:33:44Z,42.805,6.029,13.2994,4.60052,2469.797,2022-1-10T07:35:15Z
2022-01-10T05:36:47Z,42.805,6.029,13.2996,4.60061,2469.773,2022-1-10T07:38:18Z
2022-01-10T05:39:50Z,42.805,6.029,13.2996,4.60055,2469.76,2022-1-10T07:41:21Z
2022-01-10T05:42:53Z,42.805,6.029,13.2995,4.60054,2469.76,2022-1-10T07:44:24Z
2022-01-10T05:45:56Z,42.805,6.029,13.2995,4.60072,2469.797,2022-1-10T07:47:27Z
2022-01-10T05:49:00Z,42.805,6.029,13.2995,4.60059,2469.76,2022-1-10T07:50:30Z
2022-01-10T05:52:03Z,42.805,6.029,13.2994,4.60093,2469.783,2022-1-10T07:53:33Z
2022-01-10T05:55:06Z,42.805,6.029,13.3010,4.60082,2469.806,2022-1-10T07:56:36Z
2022-01-10T05:58:09Z,42.805,6.029,13.3009,4.60081,2469.76,2022-1-10T07:59:40Z
2022-01-10T06:01:12Z,42.805,6.029,13.3038,4.60110,2469.783,2022-1-10T08:02:43Z
2022-01-10T06:04:15Z,42.805,6.029,13.3066,4.60069,2469.773,2022-1-10T08:05:46Z
2022-01-10T06:07:18Z,42.805,6.029,13.3060,4.60063,2469.773,2022-1-10T08:08:49Z
2022-01-10T06:10:21Z,42.805,6.029,13.3064,4.60061,2469.797,2022-1-10T08:11:52Z
2022-01-10T06:13:25Z,42.805,6.029,13.3047,4.60046,2469.773,2022-1-10T08:14:55Z
2022-01-10T06:16:28Z,42.805,6.029,13.3081,4.60072,2469.797,2022-1-10T08:17:58Z
2022-01-10T06:19:31Z,42.805,6.029,13.3000,4.60103,2469.76,2022-1-10T08:21:01Z
2022-01-10T06:22:34Z,42.805,6.029,13.2997,4.60051,2469.783,2022-1-10T08:24:05Z
2022-01-10T06:25:37Z,42.805,6.029,13.2997,4.60053,2469.797,2022-1-10T08:27:08Z
2022-01-10T06:28:40Z,42.805,6.029,13.3000,4.60040,2469.797,2022-1-10T08:30:11Z
2022-01-10T06:31:43Z,42.805,6.029,13.2995,4.60045,2469.806,2022-1-10T08:33:14Z
2022-01-10T06:34:46Z,42.805,6.029,13.2996,4.60040,2469.783,2022-1-10T08:36:17Z
2022-01-10T06:37:50Z,42.805,6.029,13.2996,4.60043,2469.76,2022-1-10T08:39:20Z
2022-01-10T06:40:53Z,42.805,6.029,13.2995,4.60053,2469.821,2022-1-10T08:42:23Z
2022-01-10T06:43:56Z,42.805,6.029,13.3000,4.60065,2469.783,2022-1-10T08:45:26Z
2022-01-10T06:46:59Z,42.805,6.029,13.2999,4.60066,2469.737,2022-1-10T08:48:30Z
2022-01-10T06:50:02Z,42.805,6.029,13.3007,4.60059,2469.806,2022-1-10T08:51:33Z
2022-01-10T06:53:05Z,42.805,6.029,13.2996,4.60110,2469.797,2022-1-10T08:54:36Z
2022-01-10T06:56:08Z,42.805,6.029,13.2996,4.60079,2469.76,2022-1-10T08:57:39Z
2022-01-10T06:59:11Z,42.805,6.029,13.2995,4.60063,2469.797,2022-1-10T09:00:42Z
2022-01-10T07:02:15Z,42.805,6.029,13.2994,4.60039,2469.773,2022-1-10T09:03:45Z
2022-01-10T07:05:18Z,42.805,6.029,13.2996,4.60034,2469.83,2022-1-10T09:06:48Z
2022-01-10T07:08:21Z,42.805,6.029,13.2999,4.60031,2469.844,2022-1-10T09:09:51Z
2022-01-10T07:11:24Z,42.805,6.029,13.2996,4.60032,2469.783,2022-1-10T09:12:55Z
2022-01-10T07:14:27Z,42.805,6.029,13.2993,4.60031,2469.806,2022-1-10T09:15:58Z
2022-01-10T07:17:30Z,42.805,6.029,13.2998,4.60038,2469.806,2022-1-10T09:19:01Z
2022-01-10T07:20:33Z,42.805,6.029,13.2995,4.60041,2469.821,2022-1-10T09:22:04Z
2022-01-10T07:23:36Z,42.805,6.029,13.2998,4.60036,2469.783,2022-1-10T09:25:07Z
2022-01-10T07:26:40Z,42.805,6.029,13.2998,4.60029,2469.783,2022-1-10T09:28:10Z
2022-01-10T07:29:43Z,42.805,6.029,13.2996,4.60039,2469.821,2022-1-10T09:31:13Z
2022-01-10T07:32:46Z,42.805,6.029,13.2996,4.60038,2469.844,2022-1-10T09:34:16Z
2022-01-10T07:35:49Z,42.805,6.029,13.2994,4.60031,2469.806,2022-1-10T09:37:20Z
2022-01-10T07:38:52Z,42.805,6.029,13.2997,4.60031,2469.806,2022-1-10T09:40:23Z
2022-01-10T07:41:55Z,42.805,6.029,13.2993,4.60031,2469.76,2022-1-10T09:43:26Z
2022-01-10T07:44:58Z,42.805,6.029,13.2996,4.60030,2469.806,2022-1-10T09:46:29Z
2022-01-10T07:48:01Z,42.805,6.029,13.2996,4.60034,2469.821,2022-1-10T09:49:32Z
2022-01-10T07:51:05Z,42.805,6.029,13.2999,4.60030,2469.806,2022-1-10T09:52:35Z
2022-01-10T07:54:08Z,42.805,6.029,13.2995,4.60041,2469.76,2022-1-10T09:55:38Z
2022-01-10T07:57:11Z,42.805,6.029,13.2997,4.60035,2469.797,2022-1-10T09:58:41Z
2022-01-10T08:00:14Z,42.805,6.029,13.2996,4.60026,2469.83,2022-1-10T10:01:45Z
2022-01-10T08:03:17Z,42.805,6.029,13.2994,4.60023,2469.834,2022-1-10T10:04:48Z
2022-01-10T08:06:20Z,42.805,6.029,13.2995,4.60023,2469.821,2022-1-10T10:07:51Z
2022-01-10T08:09:23Z,42.805,6.029,13.2998,4.60031,2469.797,2022-1-10T10:10:54Z
2022-01-10T08:12:26Z,42.805,6.029,13.2995,4.60029,2469.806,2022-1-10T10:13:57Z
2022-01-10T08:15:30Z,42.805,6.029,13.2998,4.60031,2469.806,2022-1-10T10:17:00Z
2022-01-10T08:18:33Z,42.805,6.029,13.2994,4.60022,2469.806,2022-1-10T10:20:03Z
2022-01-10T08:21:36Z,42.805,6.029,13.2994,4.60021,2469.783,2022-1-10T10:23:06Z
2022-01-10T08:24:39Z,42.805,6.029,13.2996,4.60025,2469.806,2022-1-10T10:26:10Z
2022-01-10T08:27:42Z,42.805,6.029,13.2994,4.60028,2469.806,2022-1-10T10:29:13Z
2022-01-10T08:30:45Z,42.805,6.029,13.2996,4.60031,2469.806,2022-1-10T10:32:16Z
2022-01-10T08:33:48Z,42.805,6.029,13.2993,4.60029,2469.783,2022-1-10T10:35:19Z
2022-01-10T08:36:52Z,42.805,6.029,13.2997,4.60026,2469.844,2022-1-10T10:38:22Z
2022-01-10T08:39:55Z,42.805,6.029,13.2994,4.60031,2469.821,2022-1-10T10:41:25Z
2022-01-10T08:42:58Z,42.805,6.029,13.2997,4.60029,2469.806,2022-1-10T10:44:28Z
2022-01-10T08:46:01Z,42.805,6.029,13.2997,4.60031,2469.83,2022-1-10T10:47:32Z
2022-01-10T08:49:04Z,42.805,6.029,13.2993,4.60029,2469.83,2022-1-10T10:50:35Z
2022-01-10T08:52:07Z,42.805,6.029,13.2996,4.60025,2469.806,2022-1-10T10:53:38Z
2022-01-10T08:55:10Z,42.805,6.029,13.2994,4.60023,2469.83,2022-1-10T10:56:41Z
2022-01-10T08:58:13Z,42.805,6.029,13.2996,4.60026,2469.821,2022-1-10T10:59:44Z
2022-01-10T09:01:17Z,42.805,6.029,13.2993,4.60022,2469.844,2022-1-10T11:02:47Z
2022-01-10T09:04:20Z,42.805,6.029,13.2996,4.60023,2469.867,2022-1-10T11:05:50Z
2022-01-10T09:07:23Z,42.805,6.029,13.3000,4.60028,2469.821,2022-1-10T11:08:53Z
2022-01-10T09:10:26Z,42.805,6.029,13.2996,4.60023,2469.83,2022-1-10T11:11:57Z
2022-01-10T09:13:29Z,42.805,6.029,13.2995,4.60023,2469.83,2022-1-10T11:15:00Z
2022-01-10T09:16:32Z,42.805,6.029,13.2992,4.60021,2469.853,2022-1-10T11:18:03Z
2022-01-10T09:19:35Z,42.805,6.029,13.2993,4.60031,2469.844,2022-1-10T11:21:06Z
2022-01-10T09:22:38Z,42.805,6.029,13.2995,4.60030,2469.844,2022-1-10T11:24:09Z
2022-01-10T09:25:42Z,42.805,6.029,13.2992,4.60023,2469.844,2022-1-10T11:27:12Z
2022-01-10T09:28:45Z,42.805,6.029,13.2996,4.60022,2469.844,2022-1-10T11:30:15Z
2022-01-10T09:31:48Z,42.805,6.029,13.2996,4.60027,2469.83,2022-1-10T11:33:18Z
2022-01-10T09:34:51Z,42.805,6.029,13.2996,4.60023,2469.853,2022-1-10T11:36:22Z
2022-01-10T09:37:54Z,42.805,6.029,13.2994,4.60026,2469.867,2022-1-10T11:39:25Z
2022-01-10T09:40:57Z,42.805,6.029,13.2996,4.60021,2469.83,2022-1-10T11:42:28Z
2022-01-10T09:44:00Z,42.805,6.029,13.2997,4.60027,2469.876,2022-1-10T11:45:31Z
2022-01-10T09:47:03Z,42.805,6.029,13.2996,4.60034,2469.853,2022-1-10T11:48:34Z
2022-01-10T09:50:07Z,42.805,6.029,13.2997,4.60023,2469.853,2022-1-10T11:51:37Z
2022-01-10T09:53:10Z,42.805,6.029,13.2996,4.60025,2469.853,2022-1-10T11:54:40Z
2022-01-10T09:56:13Z,42.805,6.029,13.2995,4.60022,2469.867,2022-1-10T11:57:43Z
2022-01-10T09:59:16Z,42.805,6.029,13.2995,4.60024,2469.9,2022-1-10T12:00:47Z
2022-01-10T10:02:19Z,42.805,6.029,13.2993,4.60029,2469.89,2022-1-10T12:03:50Z
2022-01-10T10:05:22Z,42.805,6.029,13.2993,4.60031,2469.876,2022-1-10T12:06:53Z
2022-01-10T10:08:25Z,42.805,6.029,13.2999,4.60029,2469.853,2022-1-10T12:09:56Z
2022-01-10T10:11:28Z,42.805,6.029,13.2995,4.60024,2469.876,2022-1-10T12:12:59Z
2022-01-10T10:14:32Z,42.805,6.029,13.2996,4.60030,2469.876,2022-1-10T12:16:02Z
2022-01-10T10:17:35Z,42.805,6.029,13.2997,4.60029,2469.876,2022-1-10T12:19:05Z
2022-01-10T10:20:38Z,42.805,6.029,13.2998,4.60021,2469.876,2022-1-10T12:22:08Z
2022-01-10T10:23:41Z,42.805,6.029,13.2996,4.60029,2469.923,2022-1-10T12:25:12Z
2022-01-10T10:26:44Z,42.805,6.029,13.2998,4.60022,2469.9,2022-1-10T12:28:15Z
2022-01-10T10:29:47Z,42.805,6.029,13.2997,4.60031,2469.914,2022-1-10T12:31:18Z
2022-01-10T10:32:50Z,42.805,6.029,13.2998,4.60029,2469.923,2022-1-10T12:34:21Z
2022-01-10T10:35:54Z,42.805,6.029,13.2996,4.60021,2469.9,2022-1-10T12:37:24Z
2022-01-10T10:38:57Z,42.805,6.029,13.2994,4.60031,2469.923,2022-1-10T12:40:27Z
2022-01-10T10:42:00Z,42.805,6.029,13.2996,4.60024,2469.9,2022-1-10T12:43:30Z
2022-01-10T10:45:03Z,42.805,6.029,13.2999,4.60029,2469.937,2022-1-10T12:46:34Z
2022-01-10T10:48:06Z,42.805,6.029,13.2994,4.60028,2469.923,2022-1-10T12:49:37Z
2022-01-10T10:51:09Z,42.805,6.029,13.2996,4.60029,2469.923,2022-1-10T12:52:40Z
2022-01-10T10:54:12Z,42.805,6.029,13.2995,4.60025,2469.937,2022-1-10T12:55:43Z
2022-01-10T10:57:15Z,42.805,6.029,13.2994,4.60024,2469.937,2022-1-10T12:58:46Z
2022-01-10T11:00:19Z,42.805,6.029,13.2997,4.60026,2469.923,2022-1-10T13:01:49Z
2022-01-10T11:03:22Z,42.805,6.029,13.2996,4.60031,2469.937,2022-1-10T13:04:52Z
2022-01-10T11:06:25Z,42.805,6.029,13.2997,4.60029,2469.937,2022-1-10T13:07:55Z
2022-01-10T11:09:28Z,42.805,6.029,13.2995,4.60032,2469.923,2022-1-10T13:10:58Z
2022-01-10T11:12:31Z,42.805,6.029,13.2993,4.60024,2469.947,2022-1-10T13:14:02Z
2022-01-10T11:15:34Z,42.805,6.029,13.2997,4.60026,2469.96,2022-1-10T13:17:05Z
2022-01-10T11:18:37Z,42.805,6.029,13.2996,4.60026,2469.97,2022-1-10T13:20:08Z
2022-01-10T11:21:40Z,42.805,6.029,13.2996,4.60022,2469.923,2022-1-10T13:23:11Z
2022-01-10T11:24:44Z,42.805,6.029,13.2995,4.60026,2469.97,2022-1-10T13:26:14Z
2022-01-10T11:27:47Z,42.805,6.029,13.2996,4.60023,2469.933,2022-1-10T13:29:17Z
2022-01-10T11:30:50Z,42.805,6.029,13.2995,4.60027,2469.97,2022-1-10T13:32:20Z
2022-01-10T11:33:53Z,42.805,6.029,13.3000,4.60027,2469.947,2022-1-10T13:35:24Z
2022-01-10T11:36:56Z,42.805,6.029,13.2991,4.60022,2469.97,2022-1-10T13:38:27Z
2022-01-10T11:39:59Z,42.805,6.029,13.2994,4.60027,2469.984,2022-1-10T13:41:30Z
2022-01-10T11:43:02Z,42.805,6.029,13.2997,4.60024,2469.97,2022-1-10T13:44:33Z
2022-01-10T11:46:05Z,42.805,6.029,13.2992,4.60021,2470.007,2022-1-10T13:47:36Z
2022-01-10T11:49:09Z,42.805,6.029,13.2996,4.60023,2469.993,2022-1-10T13:50:39Z
2022-01-10T11:52:12Z,42.805,6.029,13.2997,4.60024,2469.984,2022-1-10T13:53:42Z
2022-01-10T11:55:15Z,42.805,6.029,13.2995,4.60026,2469.947,2022-1-10T13:56:45Z
2022-01-10T11:58:18Z,42.805,6.029,13.2997,4.60030,2469.993,2022-1-10T13:59:49Z
2022-01-10T12:01:21Z,42.805,6.029,13.2998,4.60023,2469.947,2022-1-10T14:02:52Z
2022-01-10T12:04:24Z,42.805,6.029,13.2993,4.60028,2469.984,2022-1-10T14:05:55Z
2022-01-10T12:07:27Z,42.805,6.029,13.2995,4.60025,2470.007,2022-1-10T14:08:58Z
2022-01-10T12:10:30Z,42.805,6.029,13.2991,4.60026,2469.97,2022-1-10T14:12:01Z
2022-01-10T12:13:34Z,42.805,6.029,13.2995,4.60022,2469.97,2022-1-10T14:15:04Z
2022-01-10T12:16:37Z,42.805,6.029,13.2991,4.60023,2470.007,2022-1-10T14:18:07Z
2022-01-10T12:19:40Z,42.805,6.029,13.2993,4.60024,2469.993,2022-1-10T14:21:10Z
2022-01-10T12:22:43Z,42.805,6.029,13.2993,4.60025,2469.97,2022-1-10T14:24:14Z
2022-01-10T12:25:46Z,42.805,6.029,13.2992,4.60022,2470.007,2022-1-10T14:27:17Z
2022-01-10T12:28:49Z,42.805,6.029,13.2995,4.60020,2470.007,2022-1-10T14:30:20Z
2022-01-10T12:31:52Z,42.805,6.029,13.2993,4.60025,2469.993,2022-1-10T14:33:23Z
2022-01-10T12:34:55Z,42.805,6.029,13.2993,4.60025,2469.97,2022-1-10T14:36:26Z
2022-01-10T12:37:59Z,42.805,6.029,13.2996,4.60023,2469.993,2022-1-10T14:39:29Z
2022-01-10T12:41:02Z,42.805,6.029,13.2991,4.60022,2469.984,2022-1-10T14:42:32Z
2022-01-10T12:44:05Z,42.805,6.029,13.2995,4.60021,2469.97,2022-1-10T14:45:35Z
2022-01-10T12:47:08Z,42.805,6.029,13.2993,4.60022,2469.984,2022-1-10T14:48:39Z
2022-01-10T12:50:11Z,42.805,6.029,13.2996,4.60024,2470.03,2022-1-10T14:51:42Z
2022-01-10T12:53:14Z,42.805,6.029,13.2996,4.60022,2470.017,2022-1-10T14:54:45Z
2022-01-10T12:56:17Z,42.805,6.029,13.2996,4.60024,2469.993,2022-1-10T14:57:48Z
2022-01-10T12:59:21Z,42.805,6.029,13.2994,4.60025,2469.993,2022-1-10T15:00:51Z
2022-01-10T13:02:24Z,42.805,6.029,13.2996,4.60024,2469.993,2022-1-10T15:03:54Z
2022-01-10T13:05:27Z,42.805,6.029,13.2994,4.60022,2469.993,2022-1-10T15:06:57Z
2022-01-10T13:08:30Z,42.805,6.029,13.2994,4.60023,2469.984,2022-1-10T15:10:01Z
2022-01-10T13:11:33Z,42.805,6.029,13.2998,4.60021,2469.993,2022-1-10T15:13:04Z
2022-01-10T13:14:36Z,42.805,6.029,13.2993,4.60026,2470.017,2022-1-10T15:16:07Z
2022-01-10T13:17:39Z,42.805,6.029,13.2994,4.60021,2469.993,2022-1-10T15:19:10Z
2022-01-10T13:20:42Z,42.805,6.029,13.2994,4.60024,2469.979,2022-1-10T15:22:13Z
2022-01-10T13:23:46Z,42.805,6.029,13.2991,4.60027,2470.007,2022-1-10T15:25:16Z
2022-01-10T13:26:49Z,42.805,6.029,13.2993,4.60026,2470.007,2022-1-10T15:28:19Z
2022-01-10T13:29:52Z,42.805,6.029,13.2992,4.60027,2470.017,2022-1-10T15:31:22Z
2022-01-10T13:32:55Z,42.805,6.029,13.2992,4.60023,2470.007,2022-1-10T15:34:26Z
2022-01-10T13:35:58Z,42.805,6.029,13.2994,4.60024,2470.017,2022-1-10T15:37:29Z
2022-01-10T13:39:01Z,42.805,6.029,13.2991,4.60027,2470.017,2022-1-10T15:40:32Z
2022-01-10T13:42:04Z,42.805,6.029,13.2994,4.60025,2470.007,2022-1-10T15:43:35Z
2022-01-10T13:45:07Z,42.805,6.029,13.2993,4.60028,2470.007,2022-1-10T15:46:38Z
2022-01-10T13:48:11Z,42.805,6.029,13.2990,4.60030,2470.017,2022-1-10T15:49:41Z
2022-01-10T13:51:14Z,42.805,6.029,13.2994,4.60026,2470.03,2022-1-10T15:52:44Z
2022-01-10T13:54:17Z,42.805,6.029,13.2997,4.60025,2470.04,2022-1-10T15:55:47Z
2022-01-10T13:57:20Z,42.805,6.029,13.2993,4.60023,2470.003,2022-1-10T15:58:51Z
2022-01-10T14:00:23Z,42.805,6.029,13.2995,4.60024,2470.04,2022-1-10T16:01:54Z
2022-01-10T14:03:26Z,42.805,6.029,13.2997,4.60027,2469.993,2022-1-10T16:04:57Z
2022-01-10T14:06:29Z,42.805,6.029,13.2998,4.60036,2470.04,2022-1-10T16:08:00Z
2022-01-10T14:09:32Z,42.805,6.029,13.2995,4.60024,2470.007,2022-1-10T16:11:03Z
2022-01-10T14:12:36Z,42.805,6.029,13.2993,4.60025,2470.017,2022-1-10T16:14:06Z
2022-01-10T14:15:39Z,42.805,6.029,13.2996,4.60027,2469.984,2022-1-10T16:17:09Z
2022-01-10T14:18:42Z,42.805,6.029,13.2995,4.60024,2469.993,2022-1-10T16:20:12Z
2022-01-10T14:21:45Z,42.805,6.029,13.2996,4.60021,2470.03,2022-1-10T16:23:16Z
2022-01-10T14:24:48Z,42.805,6.029,13.2995,4.60028,2470.03,2022-1-10T16:26:19Z
2022-01-10T14:27:51Z,42.805,6.029,13.2993,4.60023,2470.017,2022-1-10T16:29:22Z
2022-01-10T14:30:54Z,42.805,6.029,13.2993,4.60022,2470.03,2022-1-10T16:32:25Z
2022-01-10T14:33:57Z,42.805,6.029,13.2993,4.60020,2470.03,2022-1-10T16:35:28Z
2022-01-10T14:37:01Z,42.805,6.029,13.2991,4.60022,2470.03,2022-1-10T16:38:31Z
2022-01-10T14:40:04Z,42.805,6.029,13.2991,4.60021,2469.993,2022-1-10T16:41:34Z
2022-01-10T14:43:07Z,42.805,6.029,13.2996,4.60022,2470.017,2022-1-10T16:44:37Z
2022-01-10T14:46:10Z,42.805,6.029,13.2993,4.60024,2470.03,2022-1-10T16:47:41Z
2022-01-10T14:49:13Z,42.805,6.029,13.2993,4.60023,2470.017,2022-1-10T16:50:44Z
2022-01-10T14:52:16Z,42.805,6.029,13.2998,4.60025,2470.017,2022-1-10T16:53:47Z
2022-01-10T14:55:19Z,42.805,6.029,13.2991,4.60024,2470.03,2022-1-10T16:56:50Z
2022-01-10T14:58:22Z,42.805,6.029,13.2998,4.60023,2470.03,2022-1-10T16:59:53Z
2022-01-10T15:01:26Z,42.805,6.029,13.2995,4.60022,2470.053,2022-1-10T17:02:56Z
2022-01-10T15:04:29Z,42.805,6.029,13.2994,4.60021,2470.017,2022-1-10T17:05:59Z
2022-01-10T15:07:32Z,42.805,6.029,13.2992,4.60022,2470.03,2022-1-10T17:09:02Z
2022-01-10T15:10:35Z,42.805,6.029,13.2998,4.60023,2470.03,2022-1-10T17:12:06Z